Overview Statistics Trail Chart Weather Telemetry Raw packets
 

This is the latest recevied weather packets stored in our database for station/object KE6YLF. If no packets are shown the sender has not sent any weather packets the latest 10 day(s).

<< 67 68 69 70 71 72 73 >>
Time Temp. Humidity Pressure Rain* Wind** Luminosity Snow
1788213325 33.89° C 42% 1076.4 hPa 0 mm - - -
1788213021 33.33° C 43% 1076.6 hPa 0 mm - - -
1788212718 32.78° C 43% 1076.6 hPa 0 mm - - -
1788212414 32.78° C 43% 1076.5 hPa 0 mm - - -
1788212110 33.89° C 42% 1076.7 hPa 0 mm - - -
1788211805 32.78° C 44% 1076.9 hPa 0 mm - - -
1788211501 32.78° C 44% 1076.7 hPa 0 mm - - -
1788211200 32.78° C 44% 1077 hPa 0 mm - - -
1788210895 32.22° C 45% 1077.1 hPa 0 mm - - -
1788210594 32.78° C 45% 1077.4 hPa 0 mm - - -
1788210290 33.33° C 44% 1077.5 hPa 0 mm - - -
1788209986 32.78° C 45% 1077.6 hPa 0 mm - - -
1788209681 32.78° C 45% 1077.8 hPa 0 mm - - -
1788209377 32.78° C 45% 1077.8 hPa 0 mm - - -
1788209076 32.22° C 46% 1078 hPa 0 mm - - -
1788208775 32.22° C 46% 1077.7 hPa 0 mm - - -
1788208470 32.22° C 46% 1077.8 hPa 0 mm - - -
1788208168 32.78° C 46% 1078 hPa 0 mm - - -
1788207864 32.22° C 47% 1078 hPa 0 mm - - -
1788207558 31.67° C 48% 1078 hPa 0 mm - - -
1788207257 32.78° C 47% 1078 hPa 0 mm - - -
1788206953 32.22° C 46% 1078.3 hPa 0 mm - - -
1788206663 32.22° C 46% 1078.2 hPa 0 mm - - -
1788206347 31.67° C 47% 1078.2 hPa 0 mm - - -
1788206043 32.22° C 47% 1078.3 hPa 0 mm - - -

* Rain latest hour (hover to see other rain measurements)
** Current wind speed in m/s (hover to see current wind gust speed)